Change the Weather History Date:

Wednesday, January 23, 2013

  Actual Average Record
Temperature  
Mean Temperature 53 °F 43 °F  
Max Temperature 64 °F 54 °F 78 °F (2002)
Min Temperature 41 °F 33 °F 9 °F (1963)
Degree Days  
Heating Degree Days 12 22  
Month to date heating degree days 459 506  
Since 1 July heating degree days 1492 1572  
Cooling Degree Days 0 0  
Month to date cooling degree days 6 0  
Year to date cooling degree days 6 0  
Growing Degree Days 2 (Base 50)    
Moisture  
Dew Point 39 °F    
Average Humidity 74    
Maximum Humidity 92    
Minimum Humidity 55    
Precipitation  
Precipitation T in 0.14 in 1.36 in (1997)
Month to date precipitation 7.70 3.30  
Year to date precipitation 7.70 3.30  
Sea Level Pressure  
Sea Level Pressure 30.28 in    
Wind  
Wind Speed 5 mph (South)    
Max Wind Speed 13 mph    
Max Gust Speed 18 mph    
Visibility 10 miles    
Events      
T = Trace of Precipitation, MM = Missing Value Source: NWS Daily Summary

Daily Weather History Graph

Daily Weather History Graph

Search for Another Location

Airport or City:

Trip Planner

Search our weather history database for the weather conditions in past years. The results will help you decide how hot, cold, wet, or windy it might be!

Date:

Astronomy

Jan. 23, 2013 Rise Set
Actual Time 7:01 AM CST 5:23 PM CST
Civil Twilight 6:35 AM CST 5:49 PM CST
Nautical Twilight 6:04 AM CST 6:20 PM CST
Astronomical Twilight 5:35 AM CST 6:49 PM CST
Moon 2:36 PM CST (1/23) 4:10 AM CST (1/23)
Length of Visible Light 11h 14m
Length of Day
10h 21m
Waxing Gibbous, 89% of the Moon is Illuminated
Jan 23
Waxing Gibbous
Jan 26
Full
Feb 3
Last Quarter
Feb 10
New
Feb 17
First Quarter

Hourly Weather History & Observations

Time (CST) Temp. Windchill Dew Point Humidity Pressure Visibility Wind Dir Wind Speed Gust Speed Precip Events Conditions
12:53 AM 42.8 °F - 30.2 °F 61% 30.33 in 10.0 mi Calm Calm - N/A   Overcast
1:53 AM 42.1 °F 39.2 °F 28.0 °F 58% 30.33 in 10.0 mi East 4.6 mph - N/A   Overcast
2:53 AM 42.1 °F 40.2 °F 30.0 °F 62% 30.34 in 10.0 mi NE 3.5 mph - N/A   Overcast
3:53 AM 42.1 °F 39.2 °F 28.9 °F 60% 30.33 in 10.0 mi East 4.6 mph - N/A   Overcast
4:53 AM 42.1 °F 39.2 °F 30.0 °F 62% 30.33 in 10.0 mi East 4.6 mph - N/A   Overcast
5:53 AM 43.0 °F 41.3 °F 30.0 °F 60% 30.35 in 10.0 mi East 3.5 mph - N/A   Overcast
6:53 AM 43.0 °F 41.3 °F 32.0 °F 65% 30.35 in 10.0 mi East 3.5 mph - 0.00 in   Overcast
7:53 AM 44.1 °F - 32.0 °F 63% 30.34 in 10.0 mi Calm Calm - N/A   Overcast
8:53 AM 45.0 °F 42.6 °F 34.0 °F 65% 30.35 in 10.0 mi South 4.6 mph - N/A   Overcast
9:53 AM 48.0 °F - 35.1 °F 61% 30.37 in 10.0 mi Calm Calm - N/A   Overcast
10:53 AM 52.0 °F - 39.9 °F 63% 30.35 in 10.0 mi South 6.9 mph - N/A   Overcast
11:53 AM 55.0 °F - 43.0 °F 64% 30.31 in 10.0 mi SW 6.9 mph - N/A   Mostly Cloudy
12:53 PM 59.0 °F - 45.0 °F 60% 30.27 in 10.0 mi SW 10.4 mph - N/A   Mostly Cloudy
1:53 PM 61.0 °F - 45.0 °F 56% 30.25 in 10.0 mi WSW 9.2 mph - N/A   Mostly Cloudy
2:53 PM 63.0 °F - 46.0 °F 54% 30.23 in 10.0 mi SW 6.9 mph - N/A   Overcast
3:53 PM 63.0 °F - 46.0 °F 54% 30.23 in 10.0 mi SW 10.4 mph - N/A   Clear
4:53 PM 59.0 °F - 46.0 °F 62% 30.22 in 10.0 mi SW 8.1 mph - N/A   Scattered Clouds
5:53 PM 54.0 °F - 45.0 °F 72% 30.22 in 10.0 mi SW 3.5 mph - N/A   Clear
6:53 PM 50.0 °F - 44.1 °F 80% 30.22 in 10.0 mi Calm Calm - N/A   Scattered Clouds
7:53 PM 46.0 °F 44.8 °F 43.0 °F 89% 30.21 in 10.0 mi South 3.5 mph - N/A   Clear
8:53 PM 44.6 °F - 42.8 °F 93% 30.21 in 10.0 mi Calm Calm - N/A   Clear
9:53 PM 45.0 °F - 41.0 °F 86% 30.22 in 10.0 mi Calm Calm - N/A   Clear
10:53 PM 48.9 °F - 44.1 °F 83% 30.22 in 10.0 mi SSW 8.1 mph - N/A   Clear
11:53 PM 48.9 °F - 44.1 °F 83% 30.22 in 10.0 mi SSW 8.1 mph - N/A   Clear